Regional Weather Roundup
Issued by NWS Portland, ME

Home | Current Version | Previous Version | Text Only | Print | Product List | Glossary On
Versions: 1 2 3 4 5 6 7 8 9 10 11 12 13 14 15 16 17 18 19 20 21 22 23 24 25 26 27 28 29 30 31 32 33 34 35 36 37 38 39 40 41 42 43 44 45 46 47 48 49 50
000
ASUS41 KGYX 310110
RWRGYX
WEATHER ROUNDUP FOR MAINE AND NEW HAMPSHIRE
NATIONAL WEATHER SERVICE GRAY ME
900 PM EDT THU JUL 30 2015

MEZ002-005-006-010-012-015-018-020-021-024-026-027-029-310200-
MAINE

CITY           SKY/WX    TMP DP  RH WIND       PRES   REMARKS
PORTLAND       CLOUDY    75  73  93 SW12      29.72F
SANFORD        CLOUDY    75  68  78 SW9       29.76S
BAR HARBOR     CLOUDY    70  70 100 S13       29.74S
WISCASSET      LGT RAIN  73  70  90 SW3       29.73S
ROCKLAND       CLOUDY    72  68  88 SW12G21   29.72S
FRYEBURG       PTCLDY    71  71 100 SW6       29.74F
LEWISTONAUBURN CLOUDY    73  68  83 SW9       29.72S
AUGUSTA        TSTM      71  69  93 SW8G23    29.72S FOG
WATERVILLE     CLOUDY    72  66  83 CALM      29.69R
BANGOR         CLOUDY    72  69  90 S8        29.71S
GREENVILLE       N/A     71  71 100 CALM      29.73S
MILLINOCKET    LGT RAIN  75  69  81 CALM      29.72R
HOULTON        CLOUDY    72  65  78 S6        29.71R
PRESQUE ISLE   CLOUDY    73  64  73 S8        29.69R
FRENCHVILLE    LGT RAIN  67  66  97 CALM      29.69R
CARIBOU        CLOUDY    75  66  73 S10       29.68S
$$

NHZ002-005-008-009-011-012-014-310200-
NEW HAMPSHIRE

CITY           SKY/WX    TMP DP  RH WIND       PRES   REMARKS
PORTSMOUTH     LGT RAIN  73  69  88 SW7       29.75S
ROCHESTER      CLOUDY    76  71  85 CALM      29.75S
MANCHESTER     MOCLDY    75  73  93 S5        29.76S
CONCORD        MOCLDY    74  71  91 S5        29.77S
LACONIA        PTCLDY    73  70  88 SW9       29.76R
PLYMOUTH       FOG       70  70 100 CALM      29.76S VSB 1/2
BERLIN         CLEAR     69  67  93 CALM      29.77R FOG
WHITEFIELD     FOG       69  67  93 CALM      29.78R VSB 1/2
JAFFREY        CLOUDY    74  72  93 SW7       29.82S
KEENE          PTCLDY    73  66  78 SW3       29.80R
LEBANON        PTCLDY    71  69  93 CALM      29.77R FOG
MT WASHINGTON  FOG       54  54 100 W52         N/A  VSB 0
$$

VTZ005-007-008-310200-
VERMONT

CITY           SKY/WX    TMP DP  RH WIND       PRES   REMARKS
ST JOHNSBURY     N/A     72  69  90 MISG      29.75R
MONTPELIER     PTCLDY    73  64  73 SW5       29.82R
BURLINGTON     PTCLDY    76  69  79 S5        29.74R
$$

MAZ007-012-024-CTZ003-RIZ002-NYZ038-NYZ072-310200-
SOUTHERN NEW ENGLAND AND NY

CITY           SKY/WX    TMP DP  RH WIND       PRES   REMARKS
BOSTON         CLOUDY    77  72  84 SW16      29.78S
NANTUCKET      CLOUDY    72  70  93 S9        29.86S
PROVIDENCE     LGT RAIN  74  72  93 S7        29.81F
HARTFORD       CLOUDY    74  72  93 S9        29.80R
ALBANY         PTCLDY    77  60  55 W6        29.81R
NEW YORK CITY  MOCLDY    78  71  79 S8        29.82R
$$

ANZ081-ANZ082-ANZ150-NHZ014-MEZ023>029-310200-
COASTAL MARINE OBSERVATIONS

STATION/POSITION TIME  TEMP    WIND        PRES    WAVE
                       AIR SEA DIR/SP/G            HT/PER
                 (UTC) (F)     (DEG/KT/KT) (MB)    (FT/S)
MOUNT DESERT ROC 0100   63     180/ 22/ 23 1007.5S
MATINICUS ROCK   0000   63     190/ 21/ 22 1006.7F
ISLE OF SHOALS   0000   76     260/ 19/ 19 1006.9R
JEFFREYS LEDGE   0003      67                N/A     4/11
CASHES LEDGE BUO 0050   70                 1007.1R   5/ 5
GEORGES BANK BUO 0050   68 65  210/  8/ 10 1013.3R   4/ 9
$$

.............KEY..............
   WCI - WIND CHILL
   TC  - TEMPERATURE IN CELSIUS
   VSB - VISIBILITY IN MILES
   HX  - HEAT INDEX
   FAIR- INDICATES FEW OR NO CLOUDS BELOW 12,000 FT, WITH NO
         SIGNIFICANT WEATHER AND/OR OBSTRUCTIONS TO VISIBILITY.





USA.gov is the U.S. government's official web portal to all federal, state and local government web resources and services.